Showing default

FORMOSAT7-2/COSMIC2-2, 44351

Orbit data source: Space-Track

FORMOSAT7-2/COSMIC2-2, 44351 is a payload satellite owned by NSPO (TW) in LEO that was launched on Tue, 25 Jun 2019 UTC via an FALCON HEAVY launch vehicle from the Air Force Eastern Test Range (AFETR). Payload-class satellites include a variety of spacecraft equipped with specific instruments for various scientific and technological missions. These include communications satellites like Starlink; space stations such as the ISS; scientific satellites like the Hubble; Earth observation satellites from companies like Planet Labs, Umbra, and HawkEye 360; GPS; miniature CubeSats for education and research; and military/defense satellites.

Not visible in the next 10 days
Identifier
44351, 2019-036N
Orbit
LEO
Country
Flag of TWTW / TWN
Related business
Manufacturer
SSTL (Astrium)
Mission
Operational Civil Weather
Bus & Motor
SSTL-100, Unknown motor
Mass
278 kg wet, 278 kg dry
Launch date (UTC)
2019-06-25 (7 years ago)
Launch vehicle
FALCON HEAVY
Launch site
Air Force Eastern Test Range (AFETR)
Object type
Payload
Rocket body
Debris
Shape & HBR
Box + 1 Pan, 1.5 m
Radar Cross Section
2.189 m², Large (>1 m²)

Expand to show TLE details & history
Last TLE update: 7 hours ago

TLE from 7 hours ago
0 FORMOSAT7-2/COSMIC2-2
1 44351U 19036N   26094.87185415  .00004076  00000-0  32678-3 0  9992
2 44351  23.9986 282.9612 0000928  64.0110 296.0486 14.96189619372592
Epoch: 2026-04-04T20:55Z
TLE epoch observation values (Epoch: 2026-04-04T20:55:28.198Z)
Latitude
-0.00002°
Longitude
135.90825°
Altitude
576.289 km
Speed
7.575 km/s
True Right ascension
18h 51m 50s
True Declination
0° 00' 00"
Sunlit
Object was in daylight at epoch
Visualization orbit readout
Latitude
Unknown
Longitude
Unknown
Altitude
Unknown
Speed
Unknown
Apparent Right ascension
Unknown
Apparent Declination
Unknown
Sunlit
N/A
Visualization observer readout
Local Sidereal Time
09:56:21
Azimuth
Unknown
Elevation
Unknown
Doppler factor
Unknown
Orbital elements
Apogee altitude
584.095 km
Perigee altitude
582.803 km
Semi-major axis
6,961.586 km
Eccentricity
0.00009
Inclination
23.9986°
RAAN
282.9612°
Arg. of periapsis
64.011°
True anomaly
296.03905°
Mean anomaly
296.0486°
Eccentric anomaly
296.04382°
Mean motion
3.73664 °/min
Orbital period
96.34 mins
BSTAR
0.00032678
Loading maneuver chart data...
Computing Atmospheric mass density...
Loading historical data...
Loading historical data...
Loading historical data...
Loading historical data...
Loading historical data...
Loading historical data...
Loading historical data...

Documentation

Showing up to 5 results
|